Regional Weather Roundup
Issued by NWS

Home | Current Version | Previous Version | Graphics & Text | Print | Product List | Glossary On
Versions: 1 2 3 4 5 6 7 8 9 10 11 12 13 14 15 16 17 18 19 20 21 22 23 24 25 26 27 28 29 30 31 32 33 34 35 36 37 38 39 40 41 42 43 44 45 46 47 48 49 50
000
ASUS43 KLOT 231809
RWRIL

ILLINOIS REGIONAL WEATHER ROUNDUP
NATIONAL WEATHER SERVICE CHICAGO/ROMEOVILLE IL
100 PM CDT TUE AUG 23 2016

NOTE: "FAIR" INDICATES FEW OR NO CLOUDS BELOW 12,000 FEET WITH NO
SIGNIFICANT WEATHER AND/OR OBSTRUCTIONS TO VISIBILITY.

* THESE STATIONS ARE NOT UNDER NWS QUALITY CONTROL. THEY ALSO MAY NOT
  REPORT WEATHER SUCH AS PRECIPITATION OR FOG.

ILZ001-002-007-009-015-016-024-231900-
NORTHWEST ILLINOIS

CITY           SKY/WX    TMP DP  RH WIND       PRES   REMARKS
MOLINE         MOSUNNY   80  65  59 S13       30.11F HX  82
6HR MIN TEMP:  63; 6HR MAX TEMP:  80;

STERLING*      MOSUNNY   79  62  56 VRB7      30.15F HX  80
SAVANNA*       MOSUNNY   80  63  54 S12G20    30.12F HX  81
$$

ILZ003-004-008-010-011-017-018-231900-
NORTH CENTRAL ILLINOIS

CITY           SKY/WX    TMP DP  RH WIND       PRES   REMARKS
ROCKFORD       PTSUNNY   79  63  57 S17       30.17F HX  80
6HR MIN TEMP:  61; 6HR MAX TEMP:  79;

FREEPORT*      PTSUNNY   77  62  58 S17       30.16F
ROCHELLE*        N/A    N/A N/A N/A MISG        N/A
DE KALB*       CLOUDY    78  64  63 S17G24    30.19F
$$

ILZ005-006-012>014-019>023-231900-
NORTHEAST ILLINOIS

CITY           SKY/WX    TMP DP  RH WIND       PRES   REMARKS
CHICAGO-OHARE  PTSUNNY   79  60  52 S14       30.18F HX  80
6HR MIN TEMP:  62; 6HR MAX TEMP:  79;

CHICAGO-MIDWAY PTSUNNY   80  60  50 S13G20    30.19F HX  81
6HR MIN TEMP:  66; 6HR MAX TEMP:  80;

AURORA         MOSUNNY   80  62  54 S14G23    30.19F HX  81
6HR MIN TEMP:  60; 6HR MAX TEMP:  80;

LANSING*       CLOUDY    77  61  57 S16       30.21F
JOLIET*        PTSUNNY   80  63  55 S10G16    30.19F HX  82
WAUKEGAN       MOSUNNY   79  60  52 S17       30.16F HX  80
6HR MIN TEMP:  64; 6HR MAX TEMP:  81;

DUPAGE AIRPORT PTSUNNY   78  60  53 S15       30.18F
6HR MIN TEMP:  61; 6HR MAX TEMP:  79;

KANKAKEE*      MOSUNNY   80  63  56 S13G18    30.21F HX  81
WHEELING       MOSUNNY   80  59  48 S15       30.18F HX  81
6HR MIN TEMP:  62; 6HR MAX TEMP:  81;

MORRIS*        PTSUNNY   77  62  59 S10       30.18F
ROMEOVILLE*    PTSUNNY   79  60  51 S13       30.19F HX  80
NORTHERLY ISL    N/A     77  56  48 S14         N/A
$$

LMZ740>746-231900-
SOUTHERN LAKE MICHIGAN

STATION/POSITION SKY/WX   TEMP    WIND        PRES    VSBY  WAVE
                          AIR SEA DIR/SP/G                  HT/PER
                          (F)     (DEG/KT/KT) (MB)    (MI)  (FT/S)
SOUTHERN BUOY              73 75  170/ 17/ 19 1021.8F         3/ 4
WILMETTE HARBOR            76 72  220/ 10/ 14   N/A           2/ 4
HARRISON CRIB              76     190/ 18/ 20   N/A
BURNHAM HARBOR             78     190/ 12/ 16   N/A
CALUMET HARBOR             77     180/ 12/ 19 1022.5F
BURNS HARBOR               76     210/ 14/ 19 1023.7F
MICHIGAN CITY              74     190/ 15/ 16   N/A
MICHIGAN CITY 6N           75 73  210/ 10/ 14   N/A           1/ 2
ST. JOSEPH                 75 76  200/ 12/ 14 1022.9F         2/ 3
$$

ILZ025>027-034>036-040-047-049-050-058-095>099-231900-
WEST-CENTRAL ILLINOIS

CITY           SKY/WX    TMP DP  RH WIND       PRES   REMARKS
QUINCY         PTSUNNY   76  69  79 SE15      30.12F
GALESBURG*     MOSUNNY   79  64  60 S14G21    30.13F HX  81
MACOMB*        PTSUNNY   78  66  66 S18       30.15F HX  80
JACKSONVILLE*  CLOUDY    76  65  68 S15G22    30.17S
PITTSFIELD*    CLOUDY    74  68  81 SE13G21   30.16F
$$

ILZ028>032-037-038-041>044-048-051>054-059>061-231900-
CENTRAL ILLINOIS

CITY           SKY/WX    TMP DP  RH WIND       PRES   REMARKS
PONTIAC        MOSUNNY   79  65  62 S12       30.20F HX  81
BLOOMINGTON    MOSUNNY   79  63  57 S16       30.20F HX  80
DECATUR        PTSUNNY   79  63  57 S15       30.20F HX  80
PEORIA         MOSUNNY   81  64  56 S15       30.15F HX  82
6HR MIN TEMP:  63; 6HR MAX TEMP:  81;

LACON*         SUNNY     79  61  52 S13G18    30.15F HX  80
LINCOLN*       MOSUNNY   81  66  60 S12G17    30.17F HX  83
SPRINGFIELD    MOSUNNY   81  64  56 S12G22    30.18F HX  82
6HR MIN TEMP:  63; 6HR MAX TEMP:  81;

TAYLORVILLE    CLOUDY    78  65  65 S13       30.20F HX  80
6HR MIN TEMP:  60; 6HR MAX TEMP:  79;

$$

ILZ033-039-045-046-055>057-062-063-231900-
EAST-CENTRAL ILLINOIS

CITY           SKY/WX    TMP DP  RH WIND       PRES   REMARKS
CHAMPAIGN      SUNNY     78  63  59 S13       30.21F HX  80
RANTOUL*       MOSUNNY   79  64  60 S12       30.21F HX  81
MATTOON        SUNNY     78  61  55 S12       30.21F HX  80
PARIS*         CLOUDY    77  65  65 S6        30.24F
$$

ILZ079-100>102-231900-
SOUTHWEST ILLINOIS

CITY           SKY/WX    TMP DP  RH WIND       PRES   REMARKS
ALTON          CLOUDY    68  66  94 SE12      30.21
BELLEVILLE     PTSUNNY   75  67  76 CALM      30.19F
CAHOKIA*       CLOUDY    77  67  71 S9        30.19F
SPARTA*        CLOUDY    74  66  76 SE8       30.22S
$$

ILZ064>066-069>071-074>076-080>082-084>086-088>090-092>094-231900-
SOUTH-CENTRAL ILLINOIS

CITY           SKY/WX    TMP DP  RH WIND       PRES   REMARKS
CARBONDALE     CLOUDY    75  65  70 SE6       30.22S
6HR MIN TEMP:  65; 6HR MAX TEMP:  77;

CAIRO*         PTSUNNY   81  71  71 S8        30.22R HX  84
EFFINGHAM*     PTSUNNY   79  65  62 S6        30.23F HX  81
MARION         CLOUDY    77  66  69 S8        30.23S
MT. VERNON     CLOUDY    81  63  54 S10       30.23S HX  82
CENTRALIA*     PTSUNNY   78  67  67 S8        30.22S HX  80
SALEM*         CLOUDY    80  63  57 S14       30.22S HX  81
$$

ILZ067-068-072-073-078-083-087-091-231900-
SOUTHEAST ILLINOIS

CITY           SKY/WX    TMP DP  RH WIND       PRES   REMARKS
LAWRENCEVILLE  SUNNY     81  61  50 S12G17    30.23F HX  82
FLORA*         MOSUNNY   82  66  58 S13       30.22F HX  83
FAIRFIELD*     MOSUNNY   79  65  61 S8        30.22S HX  81
HARRISBURG*    CLOUDY    78  66  66 S6        30.24S HX  80
ROBINSON*      MOSUNNY   79  64  60 S7        30.23F HX  80
CARMI*         PTSUNNY   78  65  65 S7        30.23S HX  80
$$

ABBREVIATIONS USED IN REMARKS
   TC - TEMPERATURE IN CELSIUS
  WCI - WIND CHILL INDEX
   HX - HEAT INDEX
  VSB - VISIBILITY
$$





USA.gov is the U.S. government's official web portal to all federal, state and local government web resources and services.